Regional Weather Roundup
Issued by NWS

Home | Current Version | Previous Version | Graphics & Text | Print | Product List | Glossary On
Versions: 1 2 3 4 5 6 7 8 9 10 11 12 13 14 15 16 17 18 19 20 21 22 23 24 25 26 27 28 29 30 31 32 33 34 35 36 37 38 39 40 41 42 43 44 45 46 47 48 49 50
000
ASUS45 KBOI 300010
RWRID

IDAHO REGIONAL WEATHER ROUNDUP
NATIONAL WEATHER SERVICE BOISE ID
600 PM MDT FRI MAY 29 2015

NOTE: "FAIR" INDICATES FEW OR NO CLOUDS BELOW 12000 FEET
WITH NO SIGNIFICANT WEATHER AND/OR OBSTRUCTIONS TO VISIBILITY

IDZ012-014-300100-
SOUTHWEST IDAHO


CITY           SKY/WX    TMP DP  RH WIND       PRES   REMARKS
BOISE          MOSUNNY   84  33  16 VRB5      29.98F
CALDWELL       MOSUNNY   86  37  17 CALM      29.97F
MOUNTAIN HOME  MOSUNNY   85  32  14 VRB1      29.98F
$$

IDZ016-017-300100-
SOUTHCENTRAL IDAHO


CITY           SKY/WX    TMP DP  RH WIND       PRES   REMARKS
BURLEY         SUNNY     76  44  32 E12       30.07F
JEROME         SUNNY     77  41  27 E10       30.07F
TWIN FALLS     MOSUNNY   75  48  38 NE9       30.05S
$$

IDZ019>023-300100-
SOUTHEAST IDAHO


CITY           SKY/WX    TMP DP  RH WIND       PRES   REMARKS
IDAHO FALLS    MOSUNNY   71  44  37 VRB7      30.15F
POCATELLO      MOSUNNY   74  41  30 NW7       30.14F
REXBURG        SUNNY     69  43  38 W8        30.15F
$$

IDZ006-010-011-018-031-032-300100-
CENTRAL IDAHO MOUNTAINS


CITY           SKY/WX    TMP DP  RH WIND       PRES   REMARKS
MCCALL         MOSUNNY   72  35  25 VRB5      30.08F
HAILEY         MOSUNNY   70  41  35 SE7       30.17S
STANLEY          N/A     69  29  22 S7        30.17F
SALMON           N/A     75  46  35 W6        30.01F
CHALLIS        PTSUNNY   74  40  29 SE14G21   30.07F
$$

IDZ002-004-006-007-026-300100-
NORTHERN IDAHO


CITY           SKY/WX    TMP DP  RH WIND       PRES   REMARKS
LEWISTON       MOSUNNY   88  42  20 S6        29.87F
LOWELL           N/A     81  51  35 VRB3      29.87F
COEUR D`ALENE  MOSUNNY   79  45  29 SW3       29.92F
MULLAN PASS    CLOUDY    61  42  49 CALM      30.12F
$$


USA.gov is the U.S. government's official web portal to all federal, state and local government web resources and services.